Current weather by "City, St" or "zip code"  
 
Advertise Here

Current Conditions: Hinckley Field of Dreams Airport, MN

Mostly Cloudy


73.0 F

Last Updated on Aug 4 2020, 4:55 pm CDT
Humidity: 53%
Wind Speed: W 4.6 mph
Barometer 30.08 in
Dewpoint: 55.4 F
Visibility: 10.00 mi
Precip: --
Heat Index: NA
Wind Chill: NA
Current conditions at:

Hinckley Field of Dreams Airport, MN (K04W)

Lat: 46.02437 Lon: 92.89905

Local Radar Image active severe weather and emergency alerts image image weather storm and storm spotter reports image weather observation monitoring service image
Local
Radar
Active
Alerts
Storm Reports Obs
Monitoring

Sign-up For Email & Text Message Weather Alert Notification Services


Advertise Here

Observation History for Hinckley Field of Dreams Airport, MN


Time Wind
(mph)
Vis
(mi)
Weather Precip (in) Temperature (F) Relative
Humidity
Wind
Chill
(F)
Heat
Index
(F)
Pressure
Air Dwpt altimeter
(in)
sea level
(mb)
Rmks
4:55 pm CDT W 4.6 10.00 Mostly Cloudy -- 73.0 55.4 53% NA NA 30.08 M
3:55 pm CDT N 3.5 10.00 Overcast -- 73.0 55.4 53% NA NA 30.10 M
2:55 pm CDT N 0.0 10.00 Partly Cloudy -- 72.0 53.6 53% NA NA 30.11 M
1:55 pm CDT N 4.6 10.00 Partly Cloudy -- 72.0 53.6 53% NA NA 30.13 M
12:55 pm CDT W 4.6 10.00 Mostly Cloudy -- 70.0 55.4 60% NA NA 30.13 M
11:55 am CDT NW 6.9 10.00 Mostly Cloudy -- 70.0 55.4 60% NA NA 30.14 M
10:55 am CDT N 6.9 10.00 Partly Cloudy -- 68.0 53.6 60% NA NA 30.15 M
9:55 am CDT NW 8.1 10.00 Fair -- 66.0 53.6 64% NA NA 30.14 M
8:55 am CDT N 4.6 10.00 Fair -- 63.0 53.6 73% 64 NA 30.15 M
7:55 am CDT N 0.0 10.00 Fair -- 55.0 51.8 88% NA NA 30.15 M
6:55 am CDT NE 3.5 10.00 Fair -- 50.0 50.0 100% NA NA 30.15 M
5:55 am CDT SW 3.5 10.00 Partly Cloudy -- 52.0 48.2 88% NA NA 30.15 M
4:55 am CDT N 0.0 10.00 Overcast -- 55.0 50.0 82% NA NA 30.15 M
3:55 am CDT N 0.0 10.00 Overcast -- 54.0 51.8 94% NA NA 30.15 M
2:55 am CDT N 0.0 10.00 Overcast -- 55.0 51.8 88% NA NA 30.15 M
1:55 am CDT N 0.0 10.00 Overcast -- 55.0 51.8 88% NA NA 30.16 M
12:55 am CDT W 4.6 10.00 Overcast -- 55.0 51.8 88% 54 NA 30.17 M
11:55 pm CDT N 0.0 10.00 Overcast -- 50.0 50.0 100% NA NA 30.17 M
10:55 pm CDT N 0.0 10.00 Fair -- 52.0 51.8 100% NA NA 30.16 M
9:55 pm CDT N 0.0 10.00 Fair -- 54.0 53.6 100% NA NA 30.16 M
8:55 pm CDT N 0.0 10.00 Fair -- 57.0 55.4 94% NA NA 30.15 M
7:55 pm CDT N 0.0 10.00 Fair -- 68.0 50.0 53% NA NA 30.15 M
6:55 pm CDT N 0.0 10.00 Fair -- 70.0 48.2 46% NA NA 30.16 M
5:55 pm CDT E 3.5 10.00 Partly Cloudy -- 70.0 46.4 43% NA NA 30.17 M

Regional Weather Observation


Moose Lake Carlton County Airport, MN (KMZH)

Fair
73.0 F

Mc Gregor - Isedor Iverson Airport, MN (KHZX)

Mostly Cloudy
70.0 F

Aitkin Municipal Airport - Steve Kurtz Field, MN (KAIT)

Mostly Cloudy
73.0 F

Mora Municipal Airport, MN (KJMR)

Mostly Cloudy
73.0 F

Cloquet Carlton County Airport, MN (KCOQ)

Fair
68.0 F

Rush City Regional Airport, MN (KROS)

Partly Cloudy
73.0 F